Location: Sydney
(46.1500°N, 60.1670°W)
Time: 10:43:07
(UTC-03:00)

Iridium 90 - Visible Passes

Search period start: 22 August 2014 00:00
Search period end: 01 September 2014 00:00
Orbit: 747 x 751 km, 86.4° (Epoch: 21 August)

Date Brightness Start Highest point End Pass type
(mag) Time Alt. Az. Time Alt. Az. Time Alt. Az.
26 Aug 8.5 05:29:37 10° ESE 05:32:56 18° ENE 05:36:15 10° NE visible
29 Aug 8.6 05:04:14 10° ESE 05:06:58 15° ENE 05:09:43 10° NE visible
31 Aug 8.0 05:18:32 10° SE 05:22:37 25° E 05:26:43 10° NNE visible
